Flag for United Arab Emirates Weather past 2 weeks in Sharjah, Sharjah, United Arab Emirates

Now
100 °F

Clear.


Feels Like: 102 °F
Forecast: 97 / 105 °F
Wind: 8 mph from West

Location: Sharjah International Airport

Current Time: Jul 29, 2015 at 8:37:49 PM

Latest Report: Jul 29, 2015 at 8:00 PM


Visibility: 10 mi

Pressure: 29.45 "Hg

Humidity: 29%

Dew point: 63 °F

Historic Weather in Sharjah — Graph

°F

Sharjah temperature yesterday

Maximum temperature yesterday: 115 °F (at 2:00 PM)
Minimum temperature yesterday: 91 °F (at 4:00 AM)
Average temperature yesterday: 102 °F

Past Weeks' High & Low Weather Summary

 TemperatureHumidityPressure
High115 °F (Jul 27, 2:00 PM)84% (Jul 18, 1:00 AM)29.56 "Hg (Jul 18, 1:00 AM)
Low82 °F (Jul 20, 7:00 AM)9% (Jul 20, 11:00 AM)29.30 "Hg (Jul 17, 3:00 PM)
Average99 °F37%29.44 "Hg
* Reported Jul 14 7:00 PM — Jul 29 7:00 PM, Sharjah, Weather by CustomWeather, © 2015

Note: Actual official high and low records may vary slightly from our data, if they occured in-between our weather recording intervals... More about our weather records

Advertising

Sharjah weather history for previous 24 hours

 ConditionsComfort  
Time TempWeatherWind HumidityBarometerVisibility
7:00 PM
Wed, Jul 29
104 °FSunny.8 mph26%29.42 "Hg10 mi
6:00 PM104 °FSunny.13 mph31%29.39 "Hg10 mi
5:00 PM106 °FSunny.13 mph30%29.42 "Hg10 mi
4:00 PM106 °FSunny.15 mph30%29.42 "Hg10 mi
3:00 PM106 °FSunny.20 mph34%29.42 "Hg10 mi
2:00 PM108 °FSunny.20 mph26%29.45 "Hg10 mi
1:00 PM109 °FSunny.17 mph23%29.45 "Hg10 mi
12:00 PM111 °FPassing clouds.9 mph15%29.47 "HgN/A
11:00 AM111 °FSunny.12 mph17%29.47 "Hg10 mi
10:00 AM106 °FSunny.14 mph22%29.50 "Hg10 mi
9:00 AM102 °FSunny.9 mph24%29.50 "Hg10 mi
8:00 AM100 °FPassing clouds.10 mph25%29.50 "HgN/A
7:00 AM97 °FSunny.6 mph32%29.47 "Hg10 mi
6:00 AM95 °FSunny.6 mph34%29.47 "Hg10 mi
5:00 AM95 °FClear.8 mph39%29.47 "Hg10 mi
4:00 AM91 °FClear.2 mph46%29.45 "Hg10 mi
3:00 AM97 °FClear.5 mph39%29.45 "Hg10 mi
2:00 AM97 °FClear.8 mph42%29.47 "Hg10 mi
1:00 AM95 °FClear.5 mph47%29.47 "Hg10 mi
12:00 AM93 °FClear.3 mph53%29.47 "Hg10 mi
11:00 PM
Tue, Jul 28
95 °FClear.6 mph53%29.47 "Hg10 mi
10:00 PM100 °FClear.5 mph40%29.47 "Hg10 mi
9:00 PM97 °FClear.3 mph53%29.47 "Hg10 mi
8:00 PM99 °FClear.12 mph50%29.45 "Hg10 mi
Weather by CustomWeather, © 2015

See weather overviewHow to use our weather pages